SR9NLI Weather Reports


Display with metric or nautical units.
time (UTC)temp
F
wind
direction
speed
MPH
gust
MPH
rain 1hr
in
rain 24hr
in
rain mn
in
humidity
%
barometer
mb
20260504040832 48 348 2.0 6.0 0.00 0.00 0.00 100 957.4
20260504040729 47 346 3.0 6.0 0.00 0.00 0.00 100 957.4
20260504040526 48 348 4.0 6.0 0.00 0.00 0.00 100 957.3
20260504040323 48 304 3.0 4.0 0.00 0.00 0.00 100 957.3
20260504040222 48 298 3.0 8.0 0.00 0.00 0.00 100 957.3
20260504040120 47 288 4.0 8.0 0.00 0.00 0.00 100 957.4
20260504035916 47 304 4.0 8.0 0.00 0.00 0.00 100 957.2
20260504035713 47 332 4.0 7.0 0.00 0.00 0.00 100 957.4
20260504035612 47 335 4.0 7.0 0.00 0.00 0.00 100 957.3
20260504035510 47 332 3.0 7.0 0.00 0.00 0.00 100 957.3
20260504035307 48 71 2.0 5.0 0.00 0.00 0.00 100 957.3
20260504035103 48 35 3.0 5.0 0.00 0.00 0.00 100 957.3
20260504035003 48 354 4.0 5.0 0.00 0.00 0.00 100 957.3
20260504034901 48 319 4.0 5.0 0.00 0.00 0.00 100 957.2
20260504034658 47 319 4.0 7.0 0.00 0.00 0.00 100 957.3
20260504034455 47 353 4.0 7.0 0.00 0.00 0.00 100 957.2
20260504034354 48 6 3.0 4.0 0.00 0.00 0.00 100 957.2
20260504034252 48 5 3.0 5.0 0.00 0.00 0.00 100 957.2
20260504034049 49 62 2.0 4.0 0.00 0.00 0.00 100 957.2
20260504033846 48 0 1.0 4.0 0.00 0.00 0.00 100 957.1
20260504033745 48 0 1.0 4.0 0.00 0.00 0.00 100 957.2
20260504033643 47 0 2.0 4.0 0.00 0.00 0.00 100 957.2
20260504033441 47 141 3.0 6.0 0.00 0.00 0.00 100 957.2
20260504033238 48 131 4.0 6.0 0.00 0.00 0.00 100 957.2
20260504033138 47 130 3.0 6.0 0.00 0.00 0.00 100 957.2
20260504033035 48 103 2.0 6.0 0.00 0.00 0.00 100 957.2
20260504032832 47 0 1.0 4.0 0.00 0.00 0.00 100 957.3
20260504032630 48 125 2.0 5.0 0.00 0.00 0.00 100 957.4
20260504032529 48 100 2.0 5.0 0.00 0.00 0.00 100 957.3
20260504032427 48 103 3.0 5.0 0.00 0.00 0.00 100 957.3
20260504032224 47 60 1.0 4.0 0.00 0.00 0.00 100 957.3
20260504032021 49 109 2.0 5.0 0.00 0.00 0.00 100 957.3
20260504031921 50 121 3.0 6.0 0.00 0.00 0.00 100 957.3
20260504031819 51 126 3.0 6.0 0.00 0.00 0.00 100 957.3
20260504031617 50 124 4.0 6.0 0.00 0.00 0.00 100 957.4
20260504031414 50 103 3.0 5.0 0.00 0.00 0.00 100 957.3
20260504031313 50 103 4.0 5.0 0.00 0.00 0.00 100 957.3
20260504031210 50 99 3.0 5.0 0.00 0.00 0.00 100 957.3
20260504031007 49 103 3.0 7.0 0.00 0.00 0.00 100 957.3
20260504030804 49 118 4.0 7.0 0.00 0.00 0.00 100 957.3
20260504030703 49 122 5.0 7.0 0.00 0.00 0.00 100 957.5
20260504030601 47 126 5.0 7.0 0.00 0.00 0.00 100 957.5
20260504030345 48 119 4.0 6.0 0.00 0.00 0.00 100 957.3
20260504030142 51 123 4.0 6.0 0.00 0.00 0.00 100 957.4
20260504030041 52 125 4.0 6.0 0.00 0.00 0.00 100 957.3
20260504025939 49 127 4.0 6.0 0.00 0.00 0.00 100 957.4
20260504025735 50 134 2.0 5.0 0.00 0.00 0.00 100 957.4
20260504025532 49 0 1.0 3.0 0.00 0.00 0.00 100 957.5
20260504025431 47 0 1.0 3.0 0.00 0.00 0.00 100 957.4
20260504025328 48 127 1.0 3.0 0.00 0.00 0.00 100 957.3
20260504025125 48 126 2.0 4.0 0.00 0.00 0.00 100 957.4
20260504024922 48 134 2.0 6.0 0.00 0.00 0.00 100 957.3
20260504024821 48 137 3.0 7.0 0.00 0.00 0.00 100 957.4
20260504024719 48 141 3.0 7.0 0.00 0.00 0.00 100 957.3
20260504024516 48 150 4.0 7.0 0.00 0.00 0.00 100 957.3
20260504024313 48 149 3.0 6.0 0.00 0.00 0.00 100 957.4
20260504024212 50 154 2.0 6.0 0.00 0.00 0.00 100 957.4
20260504024110 51 144 2.0 4.0 0.00 0.00 0.00 100 957.4
20260504023907 51 148 2.0 6.0 0.00 0.00 0.00 100 957.4
20260504023704 50 151 3.0 6.0 0.00 0.00 0.00 100 957.4
20260504023603 50 151 4.0 9.0 0.00 0.00 0.00 100 957.4
20260504023501 50 151 5.0 9.0 0.00 0.00 0.00 100 957.4
20260504023257 48 151 6.0 9.0 0.00 0.00 0.00 100 957.4
20260504023055 49 150 4.0 9.0 0.00 0.00 0.00 100 957.3
20260504022954 47 135 4.0 9.0 0.00 0.00 0.00 100 957.5
20260504022852 47 129 4.0 9.0 0.00 0.00 0.00 100 957.4
20260504022648 46 127 6.0 9.0 0.00 0.00 0.00 100 957.4
20260504022445 46 144 4.0 7.0 0.00 0.00 0.00 100 957.5
20260504022344 46 150 3.0 6.0 0.00 0.00 0.00 100 957.4
20260504022242 46 145 3.0 6.0 0.00 0.00 0.00 100 957.4
20260504022039 47 122 2.0 6.0 0.00 0.00 0.00 100 957.5
20260504021836 47 141 1.0 2.0 0.00 0.00 0.00 100 957.4
20260504021735 48 0 1.0 2.0 0.00 0.00 0.00 100 957.4
20260504021632 48 0 1.0 2.0 0.00 0.00 0.00 100 957.5
20260504021430 48 171 1.0 2.0 0.00 0.00 0.00 100 957.5
20260504021227 49 129 2.0 4.0 0.00 0.00 0.00 100 957.5
20260504021126 49 127 2.0 4.0 0.00 0.00 0.00 100 957.5
20260504021023 49 128 3.0 7.0 0.00 0.00 0.00 100 957.4
20260504020820 50 128 3.0 7.0 0.00 0.00 0.00 100 957.5
20260504020617 51 131 3.0 6.0 0.00 0.00 0.00 100 957.5
20260504020516 52 140 3.0 6.0 0.00 0.00 0.00 100 957.6
20260504020413 51 150 3.0 6.0 0.00 0.00 0.00 100 957.5
20260504020210 51 147 5.0 9.0 0.00 0.00 0.00 100 957.6
20260504020008 52 151 6.0 9.0 0.00 0.00 0.00 100 957.4
20260504015907 51 154 5.0 9.0 0.00 0.00 0.00 100 957.4
20260504015805 50 157 4.0 9.0 0.00 0.00 0.00 100 957.6
20260504015601 48 148 2.0 6.0 0.00 0.00 0.00 100 957.5
20260504015358 49 133 3.0 6.0 0.00 0.00 0.00 100 957.6
20260504015258 49 144 3.0 6.0 0.00 0.00 0.00 100 957.5
20260504015155 49 146 3.0 6.0 0.00 0.00 0.00 100 957.5
20260504014952 48 170 1.0 4.0 0.00 0.00 0.00 100 957.6
20260504014748 48 154 2.0 5.0 0.00 0.00 0.00 100 957.5
20260504014647 48 148 2.0 5.0 0.00 0.00 0.00 100 957.5
20260504014545 48 145 2.0 5.0 0.00 0.00 0.00 100 957.5
20260504014342 49 147 3.0 6.0 0.00 0.00 0.00 100 957.6
20260504014139 49 165 2.0 6.0 0.00 0.00 0.00 100 957.6
20260504014038 48 192 2.0 4.0 0.00 0.00 0.00 100 957.6
20260504013936 48 206 1.0 3.0 0.00 0.00 0.00 100 957.6
20260504013733 47 224 1.0 4.0 0.00 0.00 0.00 100 957.6
20260504013530 47 251 1.0 4.0 0.00 0.00 0.00 100 957.7
20260504013429 47 243 1.0 4.0 0.00 0.00 0.00 100 957.7
20260504013326 47 0 1.0 3.0 0.00 0.00 0.00 100 957.7
20260504013123 48 173 1.0 3.0 0.00 0.00 0.00 100 957.7
20260504012921 48 0 1.0 3.0 0.00 0.00 0.00 100 957.8
20260504012820 48 0 1.0 2.0 0.00 0.00 0.00 100 957.8
20260504012717 48 107 1.0 3.0 0.00 0.00 0.00 100 957.8
20260504012515 50 147 2.0 7.0 0.00 0.00 0.00 100 957.8
20260504012312 51 148 2.0 7.0 0.00 0.00 0.00 100 957.8
20260504012211 51 144 4.0 7.0 0.00 0.00 0.00 100 957.7
20260504012108 50 135 4.0 9.0 0.00 0.00 0.00 100 957.8
20260504011905 50 141 3.0 9.0 0.00 0.00 0.00 100 957.7
20260504011702 48 0 0.0 4.0 0.00 0.00 0.00 100 957.9
20260504011602 48 0 0.0 4.0 0.00 0.00 0.00 100 957.8
20260504011459 48 0 1.0 6.0 0.00 0.00 0.00 100 957.9
20260504011256 49 155 2.0 6.0 0.00 0.00 0.00 100 957.9
20260504011054 48 154 2.0 5.0 0.00 0.00 0.00 100 957.6
20260504010953 48 165 2.0 5.0 0.00 0.00 0.00 100 957.8
20260504010850 49 146 2.0 5.0 0.00 0.00 0.00 100 957.8
20260504010647 49 128 4.0 8.0 0.00 0.00 0.00 100 957.7
20260504010444 49 130 5.0 8.0 0.00 0.00 0.00 100 957.7
20260504010344 49 149 5.0 8.0 0.00 0.00 0.00 100 957.6
20260504010242 50 161 5.0 8.0 0.00 0.00 0.00 100 957.7
20260504010039 50 156 4.0 8.0 0.00 0.00 0.00 100 957.7
20260504005836 50 146 4.0 9.0 0.00 0.00 0.00 100 957.7
20260504005735 51 141 5.0 14.0 0.00 0.00 0.00 100 957.8
20260504005632 52 141 6.0 14.0 0.00 0.00 0.00 100 957.7
20260504005429 51 132 5.0 14.0 0.00 0.00 0.00 100 957.7
20260504005226 51 137 5.0 8.0 0.00 0.00 0.00 100 957.8
20260504005126 53 149 5.0 10.0 0.00 0.00 0.00 100 957.8
20260504005023 54 154 7.0 15.0 0.00 0.00 0.00 100 957.8
20260504004821 54 154 7.0 15.0 0.00 0.00 0.00 100 957.8
20260504004618 53 140 7.0 15.0 0.00 0.00 0.00 100 957.7
20260504004518 53 136 6.0 10.0 0.00 0.00 0.00 100 957.7
20260504004415 55 136 6.0 10.0 0.00 0.00 0.00 100 957.8
20260504004212 53 141 6.0 9.0 0.00 0.00 0.00 100 957.9
20260504004009 52 134 5.0 9.0 0.00 0.00 0.00 100 957.7
20260504003909 52 133 6.0 10.0 0.00 0.00 0.00 100 957.8
20260504003806 52 131 6.0 10.0 0.00 0.00 0.00 100 957.7
20260504003604 52 141 7.0 11.0 0.00 0.00 0.00 100 957.8
20260504003400 53 156 6.0 15.0 0.00 0.00 0.00 100 957.7
20260504003300 54 162 6.0 15.0 0.00 0.00 0.00 100 957.7
20260504003157 56 164 6.0 15.0 0.00 0.00 0.00 100 957.7
20260504002954 54 155 6.0 13.0 0.00 0.00 0.00 100 957.7
20260504002751 53 150 5.0 10.0 0.00 0.00 0.00 100 957.9
20260504002650 53 147 4.0 9.0 0.00 0.00 0.00 100 957.8
20260504002548 53 148 4.0 9.0 0.00 0.00 0.00 100 957.8
20260504002335 55 148 6.0 12.0 0.00 0.00 0.00 100 957.8
20260504002131 55 133 6.0 12.0 0.00 0.00 0.00 100 957.8
20260504002031 54 131 5.0 12.0 0.00 0.00 0.00 100 957.8
20260504001929 53 128 4.0 10.0 0.00 0.00 0.00 100 957.7
20260504001726 52 140 2.0 7.0 0.00 0.00 0.00 100 957.8
20260504001523 53 136 3.0 6.0 0.00 0.00 0.00 100 957.9
20260504001422 54 147 3.0 6.0 0.00 0.00 0.00 100 957.8
20260504001320 54 149 3.0 6.0 0.00 0.00 0.00 100 957.9
20260504001117 54 179 3.0 7.0 0.00 0.00 0.00 100 957.9
20260504000914 55 175 2.0 7.0 0.00 0.00 0.00 100 957.8
20260504000813 54 153 3.0 6.0 0.00 0.00 0.00 100 957.8
20260504000711 53 131 3.0 6.0 0.00 0.00 0.00 100 957.9
20260504000508 54 133 4.0 6.0 0.00 0.00 0.00 100 957.9
20260504000305 54 149 3.0 6.0 0.00 0.00 0.00 100 957.8
20260504000204 54 148 3.0 6.0 0.00 0.00 0.00 100 957.9
20260503235858 55 136 4.0 6.0 0.00 0.00 0.00 100 957.8
20260503235655 54 151 4.0 7.0 0.00 0.00 0.00 100 957.8
20260503235554 55 152 3.0 7.0 0.00 0.00 0.00 100 957.9
20260503235452 55 149 3.0 7.0 0.00 0.00 0.00 100 957.9
20260503235249 54 141 2.0 5.0 0.00 0.00 0.00 100 957.9
20260503235045 55 151 3.0 7.0 0.00 0.00 0.00 100 958.0
20260503234945 55 148 3.0 7.0 0.00 0.00 0.00 100 957.9
20260503234843 55 149 3.0 7.0 0.00 0.00 0.00 100 957.9
20260503234640 55 146 4.0 5.0 0.00 0.00 0.00 100 957.9
20260503234437 55 151 3.0 5.0 0.00 0.00 0.00 100 957.9
20260503234336 55 150 3.0 6.0 0.00 0.00 0.00 100 958.0
20260503234233 54 157 2.0 6.0 0.00 0.00 0.00 100 957.9
20260503234030 54 146 2.0 6.0 0.00 0.00 0.00 100 958.0
20260503233827 55 147 3.0 6.0 0.00 0.00 0.00 100 958.0
20260503233726 54 150 4.0 8.0 0.00 0.00 0.00 100 957.9
20260503233624 54 150 4.0 8.0 0.00 0.00 0.00 100 957.9
20260503233421 55 145 3.0 8.0 0.00 0.00 0.00 100 958.0
20260503233218 54 148 2.0 5.0 0.00 0.00 0.00 100 958.0
20260503233117 54 155 2.0 5.0 0.00 0.00 0.00 100 958.0
20260503233014 54 155 2.0 5.0 0.00 0.00 0.00 100 958.0
20260503232811 54 167 2.0 5.0 0.00 0.00 0.00 100 958.1
20260503232608 54 161 3.0 6.0 0.00 0.00 0.00 100 958.1
20260503232507 54 155 3.0 6.0 0.00 0.00 0.00 100 958.1
20260503232405 54 152 3.0 6.0 0.00 0.00 0.00 100 958.0
20260503232202 55 154 3.0 6.0 0.00 0.00 0.00 100 958.0
20260503232000 55 168 2.0 6.0 0.00 0.00 0.00 100 958.2
20260503231859 55 168 2.0 6.0 0.00 0.00 0.00 100 958.1
20260503231757 55 163 3.0 8.0 0.00 0.00 0.00 100 958.1
20260503231554 56 176 3.0 8.0 0.00 0.00 0.00 100 958.1
20260503231352 54 179 3.0 8.0 0.00 0.00 0.00 100 958.2
20260503231251 54 161 3.0 7.0 0.00 0.00 0.00 100 958.2
20260503231149 54 145 3.0 6.0 0.00 0.00 0.00 100 958.1
20260503230946 54 146 3.0 6.0 0.00 0.00 0.00 100 958.1
20260503230742 53 154 1.0 6.0 0.00 0.00 0.00 100 958.2
20260503230642 53 0 1.0 3.0 0.00 0.00 0.00 100 958.1
20260503230539 54 174 1.0 6.0 0.00 0.00 0.00 100 958.2
20260503230336 54 152 2.0 6.0 0.00 0.00 0.00 100 958.1
20260503230133 55 145 2.0 6.0 0.00 0.00 0.00 100 958.1
20260503230033 55 117 2.0 6.0 0.00 0.00 0.00 100 958.1
20260503225931 55 107 2.0 5.0 0.00 0.00 0.00 100 958.3
20260503225728 55 107 3.0 6.0 0.00 0.00 0.00 100 958.1
20260503225525 56 124 4.0 6.0 0.00 0.00 0.00 100 958.2
20260503225424 56 126 4.0 7.0 0.00 0.00 0.00 100 958.2
20260503225322 57 127 4.0 7.0 0.00 0.00 0.00 100 958.2
20260503225119 57 133 3.0 7.0 0.00 0.00 0.00 100 958.2
20260503224917 57 146 4.0 8.0 0.00 0.00 0.00 100 958.2
20260503224816 57 147 3.0 8.0 0.00 0.00 0.00 100 958.2
20260503224714 57 152 4.0 8.0 0.00 0.00 0.00 100 958.2
20260503224510 56 167 3.0 6.0 0.00 0.00 0.00 100 958.3
20260503224308 56 174 3.0 8.0 0.00 0.00 0.00 100 958.3
20260503224207 55 178 3.0 8.0 0.00 0.00 0.00 100 958.3
20260503224104 55 174 2.0 8.0 0.00 0.00 0.00 100 958.3
20260503223901 55 190 1.0 5.0 0.00 0.00 0.00 100 958.2
20260503223658 55 184 1.0 5.0 0.00 0.00 0.00 100 958.3
20260503223558 55 186 2.0 5.0 0.00 0.00 0.00 100 958.2
20260503223455 55 190 2.0 5.0 0.00 0.00 0.00 100 958.3
20260503223252 57 0 1.0 3.0 0.00 0.00 0.00 100 958.2
20260503223049 58 0 1.0 5.0 0.00 0.00 0.00 100 958.3
20260503222948 58 206 1.0 8.0 0.00 0.00 0.00 100 958.3
20260503222846 58 203 2.0 8.0 0.00 0.00 0.00 100 958.3
20260503222642 58 182 2.0 8.0 0.00 0.00 0.00 100 958.2
20260503222439 59 176 4.0 12.0 0.00 0.00 0.00 100 958.3
20260503222338 59 179 4.0 12.0 0.00 0.00 0.00 100 958.3
20260503222236 59 175 4.0 12.0 0.00 0.00 0.00 100 958.3
20260503222033 58 178 3.0 9.0 0.00 0.00 0.00 100 958.4
20260503221830 58 184 2.0 7.0 0.00 0.00 0.00 100 958.3
20260503221729 58 183 3.0 8.0 0.00 0.00 0.00 100 958.3
20260503221626 58 173 4.0 12.0 0.00 0.00 0.00 100 958.4
20260503221423 59 172 3.0 12.0 0.00 0.00 0.00 100 958.4
20260503221219 59 184 3.0 11.0 0.00 0.00 0.00 100 958.3
20260503221119 59 180 5.0 13.0 0.00 0.00 0.00 100 958.4
20260503221017 59 182 5.0 13.0 0.00 0.00 0.00 100 958.4
20260503220814 58 177 4.0 13.0 0.00 0.00 0.00 100 958.5
20260503220611 58 185 3.0 11.0 0.00 0.00 0.00 100 958.5
20260503220511 58 194 3.0 11.0 0.00 0.00 0.00 100 958.5
20260503220408 57 191 2.0 11.0 0.00 0.00 0.00 100 958.4
20260503220206 57 177 3.0 11.0 0.00 0.00 0.00 100 958.3
20260503220003 56 178 3.0 11.0 0.00 0.00 0.00 100 958.4
20260503215902 57 179 2.0 11.0 0.00 0.00 0.00 100 958.4
20260503215759 57 174 3.0 11.0 0.00 0.00 0.00 100 958.5
20260503215557 57 164 4.0 10.0 0.00 0.00 0.00 100 958.4
20260503215354 58 149 4.0 13.0 0.00 0.00 0.00 100 958.3
20260503215253 58 151 4.0 13.0 0.00 0.00 0.00 100 958.4
20260503215151 57 153 3.0 13.0 0.00 0.00 0.00 100 958.4
20260503214947 57 170 4.0 12.0 0.00 0.00 0.00 100 958.3
20260503214745 58 168 4.0 12.0 0.00 0.00 0.00 100 958.4
20260503214644 58 174 2.0 9.0 0.00 0.00 0.00 100 958.4
20260503214529 58 175 2.0 9.0 0.00 0.00 0.00 100 958.3
20260503214326 59 164 5.0 14.0 0.00 0.00 0.00 100 958.4
20260503214122 59 166 4.0 14.0 0.00 0.00 0.00 100 958.3
20260503214022 57 169 3.0 12.0 0.00 0.00 0.00 100 958.4
20260503213920 57 201 2.0 7.0 0.00 0.00 0.00 100 958.4
20260503213716 57 192 2.0 6.0 0.00 0.00 0.00 100 958.3
20260503213513 56 186 2.0 6.0 0.00 0.00 0.00 100 958.3
20260503213413 57 193 2.0 6.0 0.00 0.00 0.00 100 958.3
20260503213311 57 185 1.0 6.0 0.00 0.00 0.00 100 958.4
20260503213108 57 187 2.0 6.0 0.00 0.00 0.00 100 958.4
20260503212904 57 190 2.0 6.0 0.00 0.00 0.00 100 958.4
20260503212804 57 0 1.0 5.0 0.00 0.00 0.00 100 958.3
20260503212702 57 219 1.0 4.0 0.00 0.00 0.00 100 958.4
20260503212458 57 200 2.0 5.0 0.00 0.00 0.00 100 958.4
20260503212255 58 185 2.0 6.0 0.00 0.00 0.00 100 958.4
20260503212154 58 189 2.0 6.0 0.00 0.00 0.00 100 958.4
20260503212052 58 192 1.0 6.0 0.00 0.00 0.00 100 958.4
20260503211849 58 184 2.0 8.0 0.00 0.00 0.00 100 958.5
20260503211646 59 191 2.0 8.0 0.00 0.00 0.00 100 958.4
20260503211545 58 0 2.0 7.0 0.00 0.00 0.00 100 958.4
20260503211442 58 0 2.0 7.0 0.00 0.00 0.00 100 958.3
20260503211240 58 0 1.0 7.0 0.00 0.00 0.00 100 958.3
20260503211036 57 240 1.0 10.0 0.00 0.00 0.00 100 958.3
20260503210936 58 231 2.0 10.0 0.00 0.00 0.00 100 958.2
20260503210833 58 237 2.0 10.0 0.00 0.00 0.00 100 958.3
20260503210631 58 237 1.0 6.0 0.00 0.00 0.00 100 958.3
20260503210427 58 224 2.0 7.0 0.00 0.00 0.00 100 958.3
20260503210327 58 220 2.0 7.0 0.00 0.00 0.00 100 958.3
20260503210224 58 0 2.0 7.0 0.00 0.00 0.00 100 958.4
20260503210020 58 0 1.0 7.0 0.00 0.00 0.00 100 958.3
20260503205817 58 0 1.0 6.0 0.00 0.00 0.00 100 958.3
20260503205717 58 0 1.0 6.0 0.00 0.00 0.00 100 958.3
20260503205615 58 0 1.0 6.0 0.00 0.00 0.00 100 958.3
20260503205412 58 0 2.0 6.0 0.00 0.00 0.00 100 958.3
20260503205209 58 234 2.0 8.0 0.00 0.00 0.00 100 958.3
20260503205108 58 228 2.0 8.0 0.00 0.00 0.00 100 958.3
20260503205006 58 243 2.0 8.0 0.00 0.00 0.00 100 958.3
20260503204802 58 0 2.0 8.0 0.00 0.00 0.00 100 958.3
20260503204559 58 0 2.0 7.0 0.00 0.00 0.00 100 958.3
20260503204459 58 0 1.0 7.0 0.00 0.00 0.00 100 958.3
20260503204356 58 0 2.0 7.0 0.00 0.00 0.00 100 958.3
20260503204154 58 0 2.0 7.0 0.00 0.00 0.00 100 958.4
20260503203951 59 0 1.0 5.0 0.00 0.00 0.00 100 958.3
20260503203850 59 221 2.0 8.0 0.00 0.00 0.00 100 958.3
20260503203747 59 223 2.0 8.0 0.00 0.00 0.00 100 958.3
20260503203544 59 225 2.0 8.0 0.00 0.00 0.00 100 958.3
20260503203342 59 221 1.0 6.0 0.00 0.00 0.00 100 958.3
20260503203241 59 0 2.0 6.0 0.00 0.00 0.00 100 958.4
20260503203138 59 0 2.0 6.0 0.00 0.00 0.00 100 958.2
20260503202936 59 0 2.0 6.0 0.00 0.00 0.00 100 958.3
20260503202733 59 0 2.0 6.0 0.00 0.00 0.00 100 958.2
20260503202633 59 0 2.0 7.0 0.00 0.00 0.00 100 958.2
20260503202530 59 0 2.0 7.0 0.00 0.00 0.00 100 958.2
20260503202327 59 0 2.0 7.0 0.00 0.00 0.00 100 958.2
20260503202124 60 0 1.0 7.0 0.00 0.00 0.00 100 958.2
20260503202024 60 0 1.0 7.0 0.00 0.00 0.00 100 958.2
20260503201921 60 234 2.0 8.0 0.00 0.00 0.00 100 958.1
20260503201718 60 248 2.0 9.0 0.00 0.00 0.00 100 958.1
20260503201514 60 246 2.0 9.0 0.00 0.00 0.00 100 958.2
20260503201414 60 0 2.0 9.0 0.00 0.00 0.00 100 958.2
20260503201312 60 0 2.0 7.0 0.00 0.00 0.00 100 958.2
20260503201108 60 0 2.0 7.0 0.00 0.00 0.00 100 958.1
20260503200905 60 235 2.0 8.0 0.00 0.00 0.00 100 958.1
20260503200804 60 235 2.0 8.0 0.00 0.00 0.00 100 958.1
20260503200701 60 238 2.0 8.0 0.00 0.00 0.00 100 958.1
20260503200459 60 0 2.0 8.0 0.00 0.00 0.00 100 958.1
20260503200255 60 225 2.0 8.0 0.00 0.00 0.00 100 958.1
20260503200154 60 219 2.0 8.0 0.00 0.00 0.00 100 958.1
20260503200052 60 217 2.0 8.0 0.00 0.00 0.00 100 958.0
20260503195849 60 212 2.0 7.0 0.00 0.00 0.00 100 958.0
20260503195646 60 216 2.0 9.0 0.00 0.00 0.00 100 958.1
20260503195545 60 217 2.0 9.0 0.00 0.00 0.00 100 958.1
20260503195443 60 212 2.0 9.0 0.00 0.00 0.00 100 958.1
20260503195241 60 215 2.0 8.0 0.00 0.00 0.00 100 958.1
20260503195038 60 219 2.0 8.0 0.00 0.00 0.00 100 958.1
20260503194936 60 227 2.0 14.0 0.00 0.00 0.00 100 958.1
20260503194834 60 224 2.0 14.0 0.00 0.00 0.00 100 958.1
20260503194631 60 225 2.0 14.0 0.00 0.00 0.00 100 958.0
20260503194427 60 205 2.0 7.0 0.00 0.00 0.00 100 958.1
20260503194327 60 202 2.0 7.0 0.00 0.00 0.00 100 958.0
20260503194224 60 197 2.0 6.0 0.00 0.00 0.00 100 958.1
20260503194022 60 213 2.0 6.0 0.00 0.00 0.00 100 958.0
20260503193818 60 221 2.0 8.0 0.00 0.00 0.00 100 958.0
20260503193718 60 216 2.0 8.0 0.00 0.00 0.00 100 957.9
20260503193617 60 213 2.0 8.0 0.00 0.00 0.00 100 958.0
20260503193413 60 212 2.0 8.0 0.00 0.00 0.00 100 958.0
20260503193211 60 209 2.0 10.0 0.00 0.00 0.00 100 958.0
20260503193110 60 215 2.0 10.0 0.00 0.00 0.00 100 958.1
20260503193007 60 207 2.0 10.0 0.00 0.00 0.00 100 958.0
20260503192804 60 220 2.0 9.0 0.00 0.00 0.00 100 958.0
20260503192602 60 222 2.0 10.0 0.00 0.00 0.00 100 958.1
20260503192501 60 224 2.0 10.0 0.00 0.00 0.00 100 958.1
20260503192359 61 230 2.0 10.0 0.00 0.00 0.00 100 958.1
20260503192155 60 0 2.0 7.0 0.00 0.00 0.00 100 958.1
20260503191952 60 223 2.0 8.0 0.00 0.00 0.00 100 958.0
20260503191851 60 222 2.0 10.0 0.00 0.00 0.00 100 958.0
20260503191749 60 221 2.0 10.0 0.00 0.00 0.00 100 958.0
20260503191546 60 225 2.0 10.0 0.00 0.00 0.00 100 958.1
20260503191343 60 214 2.0 9.0 0.00 0.00 0.00 100 958.0
20260503191242 60 212 2.0 9.0 0.00 0.00 0.00 100 958.0
20260503191139 60 215 2.0 9.0 0.00 0.00 0.00 100 958.1
20260503190937 60 217 2.0 9.0 0.00 0.00 0.00 100 958.0
20260503190734 60 213 2.0 9.0 0.00 0.00 0.00 100 958.0
20260503190619 60 0 2.0 9.0 0.00 0.00 0.00 100 958.0
20260503190517 60 224 2.0 9.0 0.00 0.00 0.00 100 958.0
20260503190314 61 222 2.0 7.0 0.00 0.00 0.00 100 958.0
20260503190112 61 218 2.0 9.0 0.00 0.00 0.00 100 958.1
20260503190011 61 218 2.0 9.0 0.00 0.00 0.00 100 958.1
20260503185908 61 219 2.0 6.0 0.00 0.00 0.00 100 957.9
20260503185705 60 219 2.0 9.0 0.00 0.00 0.00 100 958.0
20260503185502 61 228 2.0 9.0 0.00 0.00 0.00 100 958.1
20260503185401 61 222 2.0 10.0 0.00 0.00 0.00 100 958.0
20260503185259 61 228 2.0 10.0 0.00 0.00 0.00 100 958.0
20260503185056 61 0 1.0 10.0 0.00 0.00 0.00 100 958.0
20260503184853 61 214 1.0 6.0 0.00 0.00 0.00 100 958.0
20260503184752 61 217 2.0 10.0 0.00 0.00 0.00 100 958.0
20260503184649 61 219 2.0 10.0 0.00 0.00 0.00 100 958.0
20260503184446 61 219 2.0 10.0 0.00 0.00 0.00 100 958.0
20260503184243 61 219 2.0 8.0 0.00 0.00 0.00 100 958.1
20260503184143 61 216 2.0 7.0 0.00 0.00 0.00 100 958.0
20260503184040 61 206 2.0 7.0 0.00 0.00 0.00 100 957.9
20260503183837 61 0 1.0 7.0 0.00 0.00 0.00 100 958.0
20260503183634 61 208 1.0 7.0 0.00 0.00 0.00 100 958.0
20260503183533 61 214 2.0 7.0 0.00 0.00 0.00 100 957.9
20260503183431 61 209 2.0 7.0 0.00 0.00 0.00 100 957.9
20260503183228 61 0 2.0 6.0 0.00 0.00 0.00 100 957.8
20260503183025 62 0 2.0 6.0 0.00 0.00 0.00 100 957.9
20260503182924 62 232 2.0 6.0 0.00 0.00 0.00 100 957.8
20260503182822 62 228 2.0 6.0 0.00 0.00 0.00 100 957.8
20260503182618 62 219 1.0 6.0 0.00 0.00 0.00 100 957.7
20260503182415 62 0 1.0 6.0 0.00 0.00 0.00 100 957.8
20260503182313 62 0 1.0 6.0 0.00 0.00 0.00 100 957.8
20260503182211 62 0 1.0 6.0 0.00 0.00 0.00 100 957.8
20260503182009 62 0 1.0 7.0 0.00 0.00 0.00 100 957.7
20260503181806 62 0 2.0 7.0 0.00 0.00 0.00 100 957.8
20260503181705 62 219 2.0 7.0 0.00 0.00 0.00 100 957.8
20260503181602 62 219 2.0 7.0 0.00 0.00 0.00 100 957.7
20260503181359 62 219 2.0 7.0 0.00 0.00 0.00 100 957.7
20260503181156 62 214 2.0 7.0 0.00 0.00 0.00 100 957.8
20260503181055 62 214 2.0 7.0 0.00 0.00 0.00 100 957.7
20260503180952 62 216 2.0 8.0 0.00 0.00 0.00 100 957.7
20260503180750 62 227 2.0 8.0 0.00 0.00 0.00 100 957.8
20260503180547 62 220 2.0 8.0 0.00 0.00 0.00 100 957.7
20260503180447 62 217 2.0 8.0 0.00 0.00 0.00 100 957.7
20260503180344 62 215 2.0 8.0 0.00 0.00 0.00 100 957.7
20260503180140 62 215 2.0 7.0 0.00 0.00 0.00 100 957.6
20260503175937 63 0 1.0 7.0 0.00 0.00 0.00 100 957.7
20260503175836 63 0 1.0 8.0 0.00 0.00 0.00 100 957.7
20260503175733 63 0 1.0 8.0 0.00 0.00 0.00 100 957.6
20260503175530 63 0 1.0 8.0 0.00 0.00 0.00 100 957.7
20260503175327 63 0 1.0 8.0 0.00 0.00 0.00 100 957.6
20260503175227 63 0 1.0 5.0 0.00 0.00 0.00 100 957.6
20260503175124 63 0 1.0 5.0 0.00 0.00 0.00 100 957.6
20260503174922 64 0 1.0 5.0 0.00 0.00 0.00 100 957.6
20260503174719 64 0 1.0 6.0 0.00 0.00 0.00 100 957.6
20260503174618 64 0 1.0 6.0 0.00 0.00 0.00 100 957.6
20260503174515 64 206 1.0 6.0 0.00 0.00 0.00 100 957.6
20260503174312 64 211 1.0 6.0 0.00 0.00 0.00 100 957.6
20260503174109 64 228 1.0 7.0 0.00 0.00 0.00 100 957.6
20260503174008 64 230 1.0 7.0 0.00 0.00 0.00 100 957.5
20260503173906 64 0 1.0 7.0 0.00 0.00 0.00 100 957.5
20260503173703 64 0 1.0 7.0 0.00 0.00 0.00 100 957.5
20260503173500 65 0 1.0 5.0 0.00 0.00 0.00 100 957.6
20260503173359 65 0 1.0 5.0 0.00 0.00 0.00 100 957.6
20260503173257 65 0 1.0 5.0 0.00 0.00 0.00 100 957.6
20260503173054 65 0 1.0 6.0 0.00 0.00 0.00 100 957.6
20260503172851 66 0 1.0 6.0 0.00 0.00 0.00 100 957.5
20260503172750 66 0 1.0 6.0 0.00 0.00 0.00 100 957.6
20260503172648 66 0 1.0 6.0 0.00 0.00 0.00 100 957.6
20260503172444 66 212 1.0 8.0 0.00 0.00 0.00 100 957.5
20260503172242 66 221 2.0 8.0 0.00 0.00 0.00 100 957.6
20260503172141 66 227 2.0 8.0 0.00 0.00 0.00 100 957.6
20260503172039 66 228 1.0 6.0 0.00 0.00 0.00 100 957.7
20260503171836 67 241 2.0 10.0 0.00 0.00 0.00 100 957.6
20260503171633 67 233 2.0 11.0 0.00 0.00 0.00 100 957.6
20260503171532 67 231 2.0 11.0 0.00 0.00 0.00 100 957.5
20260503171430 67 227 2.0 11.0 0.00 0.00 0.00 100 957.5
20260503171227 67 238 3.0 12.0 0.00 0.00 0.00 100 957.6
20260503171023 67 239 3.0 12.0 0.00 0.00 0.00 100 957.5
20260503170922 67 234 2.0 12.0 0.00 0.00 0.00 100 957.5
20260503170820 67 239 2.0 10.0 0.00 0.00 0.00 100 957.5
20260503170617 68 235 2.0 10.0 0.00 0.00 0.00 100 957.6
20260503170414 68 236 3.0 10.0 0.00 0.00 0.00 100 957.6
20260503170313 68 229 2.0 8.0 0.00 0.00 0.00 100 957.6
20260503170210 68 225 2.0 8.0 0.00 0.00 0.00 100 957.4
20260503160137 71 231 2.0 11.0 0.00 0.00 0.00 100 957.6
20260503150815 73 0 1.0 6.0 0.00 0.00 0.00 100 957.9
20260503150714 73 0 2.0 7.0 0.00 0.00 0.00 100 958.0
20260503150612 73 260 2.0 7.0 0.00 0.00 0.00 100 957.9
20260503150409 73 242 2.0 7.0 0.00 0.00 0.00 100 958.0
20260503150206 73 248 1.0 7.0 0.00 0.00 0.00 100 958.0
20260503150105 73 248 1.0 6.0 0.00 0.00 0.00 100 958.1
20260503140233 73 0 1.0 8.0 0.00 0.00 0.00 100 958.5
20260503131306 72 261 3.0 12.0 0.00 0.00 0.00 100 959.1
20260503131103 73 268 2.0 5.0 0.00 0.00 0.00 100 959.1
20260503131002 73 0 2.0 5.0 0.00 0.00 0.00 100 959.1
20260503130859 72 256 2.0 5.0 0.00 0.00 0.00 100 959.2
20260503130656 72 220 2.0 7.0 0.00 0.00 0.00 100 959.2
20260503130453 72 220 2.0 12.0 0.00 0.00 0.00 100 959.2
20260503130353 72 221 3.0 12.0 0.00 0.00 0.00 100 959.1
20260503130250 73 220 3.0 12.0 0.00 0.00 0.00 100 959.1
20260503120221 72 0 1.0 5.0 0.00 0.00 0.00 100 959.7
20260503120119 72 229 2.0 10.0 0.00 0.00 0.00 100 959.7
20260503110756 71 222 1.0 6.0 0.00 0.00 0.00 100 960.0
20260503110655 71 219 2.0 5.0 0.00 0.00 0.00 100 959.9
20260503110553 71 185 2.0 7.0 0.00 0.00 0.00 100 960.0
20260503110350 71 175 2.0 8.0 0.00 0.00 0.00 100 960.0
20260503110137 71 178 2.0 8.0 0.00 0.00 0.00 100 960.1
20260503100205 68 248 4.0 18.0 0.00 0.00 0.00 100 960.7
20260503090439 68 212 2.0 8.0 0.00 0.00 0.00 100 961.1
20260503090338 68 208 2.0 6.0 0.00 0.00 0.00 100 961.0
20260503090235 68 0 2.0 5.0 0.00 0.00 0.00 100 961.0
20260503081512 67 216 2.0 8.0 0.00 0.00 0.00 100 961.0
20260503081412 66 235 2.0 9.0 0.00 0.00 0.00 100 961.1
20260503081309 66 229 2.0 9.0 0.00 0.00 0.00 100 961.1
20260503081106 66 215 2.0 9.0 0.00 0.00 0.00 100 961.1
20260503080903 66 218 2.0 10.0 0.00 0.00 0.00 100 961.1
20260503080803 66 231 2.0 14.0 0.00 0.00 0.00 100 961.1
20260503080700 66 238 3.0 14.0 0.00 0.00 0.00 100 961.1
20260503080456 65 240 2.0 14.0 0.00 0.00 0.00 100 961.0
20260503080253 65 242 2.0 12.0 0.00 0.00 0.00 100 961.2
20260503080152 65 245 2.0 12.0 0.00 0.00 0.00 100 961.1
20260503072759 64 229 2.0 7.0 0.00 0.00 0.00 100 960.8
20260503072556 64 229 2.0 7.0 0.00 0.00 0.00 100 961.0
20260503072455 64 236 2.0 7.0 0.00 0.00 0.00 100 961.0
20260503072353 64 233 2.0 11.0 0.00 0.00 0.00 100 960.9
20260503072149 64 228 2.0 11.0 0.00 0.00 0.00 100 961.1
20260503071946 64 248 4.0 14.0 0.00 0.00 0.00 100 960.9
20260503071846 64 247 4.0 14.0 0.00 0.00 0.00 100 961.0
20260503071744 64 250 3.0 14.0 0.00 0.00 0.00 100 961.0
20260503071540 64 222 2.0 11.0 0.00 0.00 0.00 100 961.0
20260503071338 64 221 3.0 11.0 0.00 0.00 0.00 100 961.0
20260503071237 64 224 2.0 11.0 0.00 0.00 0.00 100 961.0
20260503071135 64 227 2.0 10.0 0.00 0.00 0.00 100 960.8
20260503070932 64 247 2.0 9.0 0.00 0.00 0.00 100 961.0
20260503070728 64 239 2.0 9.0 0.00 0.00 0.00 100 960.9
20260503070627 64 237 2.0 9.0 0.00 0.00 0.00 100 961.0
20260503070525 64 237 2.0 10.0 0.00 0.00 0.00 100 960.9
20260503070322 64 239 4.0 13.0 0.00 0.00 0.00 100 961.0
20260503070118 64 241 3.0 13.0 0.00 0.00 0.00 100 960.9
20260503060149 52 344 3.0 5.0 0.00 0.00 0.00 100 961.0
20260503054930 50 349 2.0 5.0 0.00 0.00 0.00 100 961.1
20260503054726 50 0 3.0 6.0 0.00 0.00 0.00 100 961.0
20260503054626 51 116 2.0 6.0 0.00 0.00 0.00 100 961.0
20260503054523 52 121 2.0 6.0 0.00 0.00 0.00 100 961.1
20260503054310 50 0 1.0 4.0 0.00 0.00 0.00 100 961.0
20260503054106 49 296 2.0 4.0 0.00 0.00 0.00 100 961.0
20260503054006 49 295 2.0 4.0 0.00 0.00 0.00 100 961.2
20260503053904 49 303 2.0 4.0 0.00 0.00 0.00 100 961.1
20260503053701 48 358 2.0 4.0 0.00 0.00 0.00 100 961.0
20260503053458 48 346 2.0 4.0 0.00 0.00 0.00 100 961.2
20260503053357 48 339 3.0 5.0 0.00 0.00 0.00 100 961.1
20260503053255 47 329 3.0 6.0 0.00 0.00 0.00 100 961.1
20260503053053 47 330 3.0 6.0 0.00 0.00 0.00 100 961.2
20260503052850 48 338 2.0 4.0 0.00 0.00 0.00 100 961.0
20260503052749 48 326 1.0 4.0 0.00 0.00 0.00 100 961.0
20260503052646 47 332 1.0 4.0 0.00 0.00 0.00 100 961.2
20260503052443 47 33 1.0 2.0 0.00 0.00 0.00 100 961.1
20260503052239 47 351 2.0 4.0 0.00 0.00 0.00 100 961.2
20260503052139 46 329 2.0 4.0 0.00 0.00 0.00 100 961.1
20260503052036 46 327 2.0 4.0 0.00 0.00 0.00 100 961.1
20260503051833 46 326 2.0 4.0 0.00 0.00 0.00 100 961.1
20260503051630 45 338 3.0 5.0 0.00 0.00 0.00 100 961.1
20260503051529 45 350 3.0 5.0 0.00 0.00 0.00 100 961.1
20260503051427 45 353 4.0 5.0 0.00 0.00 0.00 100 961.2
20260503051223 46 348 2.0 5.0 0.00 0.00 0.00 100 961.1
20260503051020 48 0 0.0 2.0 0.00 0.00 0.00 100 961.2
20260503050920 47 296 1.0 3.0 0.00 0.00 0.00 100 961.2
20260503050817 46 295 2.0 3.0 0.00 0.00 0.00 100 961.2
20260503050614 45 301 2.0 3.0 0.00 0.00 0.00 100 961.1
20260503050411 46 0 1.0 2.0 0.00 0.00 0.00 100 961.2
20260503050311 46 0 1.0 4.0 0.00 0.00 0.00 100 961.0
20260503050209 45 328 1.0 4.0 0.00 0.00 0.00 100 961.1
20260503050006 44 329 2.0 4.0 0.00 0.00 0.00 100 961.1
20260503045802 45 0 1.0 2.0 0.00 0.00 0.00 100 961.1
20260503045701 45 0 0.0 2.0 0.00 0.00 0.00 100 961.1
20260503045559 45 0 1.0 3.0 0.00 0.00 0.00 100 961.0
20260503045355 43 337 2.0 4.0 0.00 0.00 0.00 100 961.0
20260503045152 43 341 3.0 4.0 0.00 0.00 0.00 100 961.0
20260503045051 43 343 3.0 4.0 0.00 0.00 0.00 100 961.1
20260503044949 42 342 2.0 4.0 0.00 0.00 0.00 100 961.2
20260503044745 42 335 3.0 4.0 0.00 0.00 0.00 100 961.2
20260503044542 42 338 3.0 4.0 0.00 0.00 0.00 100 961.2
20260503044441 42 344 3.0 4.0 0.00 0.00 0.00 100 961.0
20260503044339 43 349 3.0 4.0 0.00 0.00 0.00 100 961.1
20260503044136 43 333 2.0 4.0 0.00 0.00 0.00 100 961.0
20260503043933 43 322 2.0 4.0 0.00 0.00 0.00 100 961.0
20260503043833 43 327 2.0 4.0 0.00 0.00 0.00 100 961.0
20260503043730 43 338 2.0 4.0 0.00 0.00 0.00 100 961.0
20260503043526 43 336 2.0 4.0 0.00 0.00 0.00 100 961.1
20260503043323 43 323 2.0 4.0 0.00 0.00 0.00 100 961.1
20260503043222 43 315 2.0 4.0 0.00 0.00 0.00 100 961.0
20260503043120 44 308 1.0 4.0 0.00 0.00 0.00 100 961.1
20260503042917 43 309 2.0 4.0 0.00 0.00 0.00 100 961.0
20260503042713 44 316 2.0 4.0 0.00 0.00 0.00 100 960.8
20260503042613 44 317 2.0 4.0 0.00 0.00 0.00 100 961.0
20260503042510 44 317 1.0 4.0 0.00 0.00 0.00 100 960.9
20260503042307 44 318 1.0 2.0 0.00 0.00 0.00 100 960.9
20260503042104 43 306 1.0 2.0 0.00 0.00 0.00 100 960.9
20260503042003 43 294 1.0 2.0 0.00 0.00 0.00 100 961.0
20260503041900 43 287 1.0 2.0 0.00 0.00 0.00 100 960.9
20260503041657 42 311 2.0 3.0 0.00 0.00 0.00 100 960.9
20260503041454 42 321 3.0 4.0 0.00 0.00 0.00 100 960.9
20260503041354 42 321 3.0 4.0 0.00 0.00 0.00 100 961.0
20260503041251 42 318 3.0 4.0 0.00 0.00 0.00 100 961.0
20260503041049 42 320 4.0 5.0 0.00 0.00 0.00 100 961.0